TimeCDT,TemperatureF,Dew PointF,Humidity,Sea Level PressureIn,VisibilityMPH,Wind Direction,Wind SpeedMPH,Gust SpeedMPH,PrecipitationIn,Events,Conditions,WindDirDegrees,DateUTC
12:15 AM,78.8,64.4,61,30.07,10.0,SSE,11.5,-,N/A,,Clear,150,2013-06-13 05:15:00
12:35 AM,78.8,64.4,61,30.06,10.0,SSE,11.5,19.6,N/A,,Clear,160,2013-06-13 05:35:00
12:55 AM,77.0,64.4,65,30.07,10.0,SSE,12.7,-,N/A,,Clear,150,2013-06-13 05:55:00
1:15 AM,77.0,64.4,65,30.08,10.0,SSE,16.1,23.0,N/A,,Clear,160,2013-06-13 06:15:00
1:35 AM,77.0,64.4,65,30.08,10.0,SE,16.1,-,N/A,,Scattered Clouds,140,2013-06-13 06:35:00
1:55 AM,77.0,64.4,65,30.08,10.0,SSE,16.1,26.5,N/A,,Scattered Clouds,160,2013-06-13 06:55:00
2:15 AM,75.2,66.2,73,30.07,10.0,SSE,15.0,-,N/A,,Clear,160,2013-06-13 07:15:00
2:35 AM,73.4,66.2,78,30.06,10.0,SSE,11.5,-,N/A,,Clear,160,2013-06-13 07:35:00
2:55 AM,73.4,66.2,78,30.06,10.0,SSE,9.2,-,N/A,,Clear,160,2013-06-13 07:55:00
3:15 AM,73.4,66.2,78,30.06,10.0,SSE,9.2,-,N/A,,Clear,160,2013-06-13 08:15:00
3:35 AM,73.4,66.2,78,30.06,10.0,South,6.9,-,N/A,,Clear,170,2013-06-13 08:35:00
3:55 AM,73.4,66.2,78,30.06,10.0,SSE,8.1,-,N/A,,Clear,160,2013-06-13 08:55:00
4:15 AM,73.4,66.2,78,30.06,10.0,SSE,6.9,-,N/A,,Clear,160,2013-06-13 09:15:00
4:35 AM,73.4,66.2,78,30.07,10.0,SSE,8.1,-,N/A,,Scattered Clouds,160,2013-06-13 09:35:00
4:55 AM,73.4,68.0,83,30.07,10.0,SSE,10.4,-,N/A,,Mostly Cloudy,160,2013-06-13 09:55:00
5:15 AM,73.4,68.0,83,30.08,10.0,SSE,11.5,-,N/A,,Mostly Cloudy,160,2013-06-13 10:15:00
5:35 AM,73.4,68.0,83,30.08,10.0,SSE,10.4,18.4,N/A,,Overcast,160,2013-06-13 10:35:00
5:55 AM,73.4,68.0,83,30.08,10.0,SSE,13.8,-,N/A,,Mostly Cloudy,160,2013-06-13 10:55:00
6:15 AM,73.4,68.0,83,30.08,10.0,SSE,11.5,18.4,N/A,,Mostly Cloudy,160,2013-06-13 11:15:00
6:35 AM,73.4,68.0,83,30.09,10.0,SSE,12.7,17.3,N/A,,Overcast,160,2013-06-13 11:35:00
6:55 AM,73.4,68.0,83,30.10,10.0,SSE,13.8,18.4,N/A,,Overcast,160,2013-06-13 11:55:00
7:15 AM,73.4,68.0,83,30.10,10.0,SSE,9.2,-,N/A,,Mostly Cloudy,150,2013-06-13 12:15:00
7:35 AM,73.4,68.0,83,30.10,10.0,SSE,10.4,-,N/A,,Scattered Clouds,160,2013-06-13 12:35:00
7:55 AM,73.4,68.0,83,30.10,10.0,SSE,6.9,-,N/A,,Scattered Clouds,150,2013-06-13 12:55:00
8:15 AM,75.2,68.0,78,30.11,10.0,SSE,10.4,-,N/A,,Scattered Clouds,150,2013-06-13 13:15:00
8:35 AM,75.2,68.0,78,30.11,10.0,SSE,11.5,-,N/A,,Scattered Clouds,150,2013-06-13 13:35:00
8:55 AM,77.0,68.0,74,30.11,10.0,SSE,10.4,-,N/A,,Mostly Cloudy,160,2013-06-13 13:55:00
9:15 AM,77.0,68.0,74,30.11,10.0,SSE,12.7,17.3,N/A,,Mostly Cloudy,150,2013-06-13 14:15:00
9:35 AM,78.8,68.0,69,30.12,10.0,SSE,9.2,-,N/A,,Scattered Clouds,160,2013-06-13 14:35:00
9:55 AM,78.8,68.0,69,30.12,10.0,SSE,15.0,18.4,N/A,,Mostly Cloudy,150,2013-06-13 14:55:00
10:15 AM,78.8,66.2,65,30.12,10.0,South,9.2,-,N/A,,Mostly Cloudy,170,2013-06-13 15:15:00
10:35 AM,78.8,68.0,69,30.11,10.0,SSE,8.1,-,N/A,,Scattered Clouds,160,2013-06-13 15:35:00
10:55 AM,80.6,66.2,61,30.11,10.0,SE,13.8,18.4,N/A,,Scattered Clouds,140,2013-06-13 15:55:00
11:15 AM,80.6,66.2,61,30.11,10.0,South,9.2,-,N/A,,Clear,170,2013-06-13 16:15:00
11:35 AM,80.6,64.4,58,30.11,10.0,SE,10.4,-,N/A,,Scattered Clouds,130,2013-06-13 16:35:00
11:55 AM,82.4,64.4,54,30.11,10.0,South,11.5,18.4,N/A,,Scattered Clouds,170,2013-06-13 16:55:00
12:15 PM,82.4,64.4,54,30.11,10.0,SSE,17.3,20.7,N/A,,Mostly Cloudy,160,2013-06-13 17:15:00
12:35 PM,82.4,62.6,51,30.11,10.0,SE,13.8,19.6,N/A,,Scattered Clouds,140,2013-06-13 17:35:00
12:55 PM,84.2,62.6,48,30.10,10.0,SE,15.0,20.7,N/A,,Scattered Clouds,140,2013-06-13 17:55:00
1:15 PM,86.0,60.8,43,30.10,10.0,SE,15.0,21.9,N/A,,Scattered Clouds,130,2013-06-13 18:15:00
1:35 PM,87.8,60.8,40,30.09,10.0,SSE,16.1,23.0,N/A,,Scattered Clouds,160,2013-06-13 18:35:00
1:55 PM,87.8,60.8,40,30.08,10.0,SSE,12.7,18.4,N/A,,Scattered Clouds,150,2013-06-13 18:55:00
2:35 PM,87.8,60.8,40,30.06,10.0,SE,11.5,17.3,N/A,,Scattered Clouds,140,2013-06-13 19:35:00
3:15 PM,89.6,60.8,38,30.02,10.0,SE,6.9,-,N/A,,Clear,130,2013-06-13 20:15:00
3:35 PM,87.8,60.8,40,30.01,10.0,South,11.5,17.3,N/A,,Scattered Clouds,170,2013-06-13 20:35:00
3:55 PM,89.6,59.0,36,30.00,10.0,SE,15.0,19.6,N/A,,Scattered Clouds,140,2013-06-13 20:55:00
4:15 PM,89.6,59.0,36,29.99,10.0,ESE,15.0,19.6,N/A,,Scattered Clouds,110,2013-06-13 21:15:00
4:35 PM,91.4,60.8,36,29.99,10.0,SSE,15.0,21.9,N/A,,Clear,160,2013-06-13 21:35:00
4:55 PM,89.6,59.0,36,29.99,10.0,SE,15.0,20.7,N/A,,Clear,130,2013-06-13 21:55:00
5:15 PM,91.4,60.8,36,29.99,10.0,SSE,17.3,21.9,N/A,,Clear,150,2013-06-13 22:15:00
5:35 PM,80.6,68.0,65,30.00,2.5,SE,15.0,32.2,0.08,Rain,Heavy Rain,140,2013-06-13 22:35:00
5:55 PM,82.4,68.0,62,29.98,10.0,SE,11.5,19.6,0.09,Thunderstorm,Mostly Cloudy,130,2013-06-13 22:55:00
6:15 PM,86.0,64.4,48,29.98,10.0,SE,13.8,24.2,N/A,Thunderstorm,Clear,130,2013-06-13 23:15:00
6:35 PM,84.2,62.6,48,29.98,10.0,SE,18.4,21.9,N/A,Thunderstorm,Clear,140,2013-06-13 23:35:00
6:55 PM,82.4,62.6,51,29.98,10.0,SE,16.1,21.9,N/A,Thunderstorm,Clear,130,2013-06-13 23:55:00
7:15 PM,82.4,62.6,51,29.99,10.0,SSE,15.0,20.7,N/A,Thunderstorm,Clear,150,2013-06-14 00:15:00
7:55 PM,80.6,62.6,54,30.01,10.0,SSE,18.4,24.2,N/A,Thunderstorm,Clear,150,2013-06-14 00:55:00
8:15 PM,80.6,62.6,54,30.02,10.0,SSE,16.1,20.7,N/A,,Scattered Clouds,150,2013-06-14 01:15:00
8:35 PM,75.2,64.4,69,30.03,10.0,SE,17.3,24.2,N/A,Thunderstorm,Scattered Clouds,130,2013-06-14 01:35:00
8:55 PM,71.6,66.2,83,30.03,10.0,North,-9999.0,-,N/A,Rain-Thunderstorm,Thunderstorms and Rain,0,2013-06-14 01:55:00
9:35 PM,73.4,64.4,73,30.03,10.0,North,-9999.0,-,N/A,,Clear,0,2013-06-14 02:35:00
9:55 PM,75.2,64.4,69,30.04,10.0,North,-9999.0,-,N/A,,Clear,0,2013-06-14 02:55:00
10:15 PM,75.2,64.4,69,30.04,10.0,North,-9999.0,-,N/A,,Clear,0,2013-06-14 03:15:00
10:35 PM,73.4,64.4,73,30.04,10.0,North,-9999.0,-,N/A,,Clear,0,2013-06-14 03:35:00
10:55 PM,73.4,64.4,73,30.05,10.0,North,-9999.0,-,N/A,,Clear,0,2013-06-14 03:55:00
11:15 PM,73.4,64.4,73,30.05,10.0,North,-9999.0,-,N/A,,Clear,0,2013-06-14 04:15:00
11:35 PM,73.4,64.4,73,30.06,10.0,North,-9999.0,-,N/A,,Clear,0,2013-06-14 04:35:00
11:55 PM,73.4,64.4,73,30.06,10.0,North,-9999.0,-,N/A,,Scattered Clouds,0,2013-06-14 04:55:00